[[{"header":{"parameterUnit":"m.s-1","parameterCategory":1,"la1":30.2991,"la2":30.254,"lo1":-89.0895,"lo2":-89.0444,"dy":0.0017,"dx":0.0017,"nx":28,"ny":28,"refTime":"2024-05-07T21:00:00:Z","depth":0,"parameterNumber":2,"parameterNumberName":"U-component_of_WINDS"},"data":[0,0,0,0,0,0,0,0,0,0,0,0,0,0,0,0,0,0,0,0,0,0,0,0,0,0,0,0,0,0,0,0,0,0,0,0,0,0,0,0,0,0,0,0,0,0,0,0,0,0,0,0,0,0,0,0,0,0,-1.8041,-1.8042,0,-1.8061,-1.8061,-1.8061,-1.8069,-1.8069,-1.8069,-1.8069,-1.8091,-1.8091,-1.8092,0,0,0,0,0,0,0,0,0,0,0,0,0,-1.8012,-1.8013,-1.8041,-1.8042,-1.8042,-1.8061,-1.8061,-1.8062,-1.8069,-1.8069,-1.8069,-1.8069,-1.8091,-1.8091,-1.8092,0,0,0,0,0,0,0,0,0,0,0,0,0,-1.8028,-1.8013,-1.8041,-1.8048,-1.8049,-1.8061,-1.8061,-1.8062,-1.8069,-1.8069,-1.8069,-1.8069,-1.809,-1.8091,-1.8092,-1.8099,0,0,-1.8095,-1.8095,0,0,0,0,0,0,0,0,-1.8027,-1.8029,-1.8047,-1.8048,-1.8049,-1.8063,-1.8059,-1.8074,-1.807,-1.8062,-1.8069,-1.8069,-1.8082,-1.8083,-1.8087,-1.81,-1.8101,-1.8095,-1.8096,-1.8096,-1.8096,0,0,0,0,0,0,0,-1.8026,-1.8028,-1.8049,-1.8047,-1.8048,-1.8051,-1.8053,-1.8062,-1.8072,-1.8062,-1.8063,-1.8065,-1.8082,-1.8086,-1.8088,-1.8102,-1.8095,-1.8096,-1.8096,-1.8097,-1.8122,-1.8122,0,0,0,0,0,0,-1.8023,-1.8027,-1.8049,-1.805,-1.8037,-1.8051,-1.8054,-1.8058,-1.8072,-1.8074,-1.8065,-1.8065,-1.8085,-1.8087,-1.8088,-1.8098,-1.8096,-1.8097,-1.8097,-1.8122,-1.8122,-1.8122,0,0,0,0,0,0,-1.8023,-1.8025,-1.8048,-1.8039,-1.8042,-1.8052,-1.8057,-1.8059,-1.8063,-1.8074,-1.8076,-1.8067,-1.8085,-1.8087,-1.8096,-1.8099,-1.8097,-1.8098,-1.8121,-1.8122,-1.8122,-1.8116,0,0,0,0,0,0,-1.8022,-1.8025,-1.8027,-1.8038,-1.8042,-1.8055,-1.8057,-1.8059,-1.8064,-1.8065,-1.8077,-1.8078,-1.8085,-1.8095,-1.8097,-1.81,-1.8099,-1.8121,-1.8122,-1.8122,-1.8116,-1.8116,-1.8116,0,0,0,0,0,-1.8021,-1.8025,-1.8027,-1.803,-1.8045,-1.8055,-1.8057,-1.8064,-1.8064,-1.8067,-1.8074,-1.8078,-1.8098,-1.8096,-1.8099,-1.8101,-1.8121,-1.8122,-1.8122,-1.8116,-1.8116,-1.8116,0,0,0,0,0,0,-1.8015,-1.8027,-1.8029,-1.8038,-1.8045,-1.8056,-1.806,-1.8064,-1.8072,-1.8072,-1.808,-1.8083,-1.8092,-1.8098,-1.8095,-1.8109,-1.811,-1.8111,-1.8105,-1.8105,-1.8105,-1.8103,-1.81,0,0,0,0,0,-1.8014,-1.8021,-1.8031,-1.8038,-1.8041,-1.805,-1.8055,-1.8059,-1.8068,-1.8071,-1.8079,-1.8087,-1.8095,-1.81,-1.8109,-1.8117,-1.812,-1.812,-1.812,-1.812,-1.8121,-1.8126,-1.8126,-1.8123,-1.8123,-1.8123,0,0,-1.8014,-1.8021,-1.8025,-1.8037,-1.8043,-1.805,-1.8053,-1.806,-1.8065,-1.8072,-1.8081,-1.8087,-1.8097,-1.8106,-1.8111,-1.8111,-1.8123,-1.8121,-1.812,-1.8121,-1.8126,-1.8127,-1.8127,-1.8123,-1.8123,-1.8123,0,0,-1.8016,-1.8022,-1.8028,-1.8034,-1.8044,-1.8049,-1.8051,-1.8062,-1.8066,-1.8075,-1.808,-1.8087,-1.8101,-1.8107,-1.8113,-1.8117,-1.8121,-1.812,-1.812,-1.8124,-1.8125,-1.8125,-1.8127,-1.8127,-1.812,-1.812,-1.812,0,-1.8014,-1.8024,-1.8031,-1.8038,-1.8043,-1.8049,-1.8055,-1.8061,-1.8073,-1.8076,-1.8077,-1.8094,-1.8101,-1.8112,-1.8113,-1.8117,-1.8119,-1.8119,-1.8124,-1.8124,-1.8125,-1.8127,-1.8127,-1.812,-1.812,-1.812,-1.812,0,-1.8021,-1.8028,-1.8032,-1.8043,-1.8048,-1.8055,-1.8063,-1.8068,-1.8072,-1.8078,-1.8087,-1.8096,-1.8106,-1.8109,-1.8113,-1.812,-1.812,-1.8122,-1.8123,-1.8125,-1.8127,-1.8127,-1.812,-1.812,-1.812,-1.812,0,0,-1.8021,-1.8034,-1.8036,-1.8041,-1.8051,-1.8057,-1.8064,-1.8073,-1.8078,-1.8086,-1.8092,-1.8103,-1.8105,-1.8111,-1.8116,-1.8121,-1.8124,-1.8122,-1.8123,-1.8122,-1.8132,-1.8131,-1.8131,-1.8126,-1.8126,-1.8127,-1.8131,0,-1.8024,-1.8036,-1.8042,-1.8052,-1.8059,-1.8065,-1.8071,-1.8078,-1.8084,-1.8091,-1.8097,-1.8105,-1.8107,-1.8111,-1.8115,-1.8122,-1.8126,-1.8122,-1.8133,-1.8133,-1.813,-1.8132,-1.8131,-1.8135,-1.8132,-1.8132,-1.8132,0,-1.803,-1.8038,-1.8048,-1.8058,-1.8061,-1.8066,-1.8075,-1.8081,-1.809,-1.8094,-1.81,-1.8105,-1.8113,-1.8114,-1.8125,-1.8122,-1.8127,-1.8131,-1.8131,-1.8133,-1.8133,-1.8134,-1.8136,-1.8137,-1.8134,-1.8133,-1.8133,0,-1.8029,-1.8041,-1.8049,-1.8053,-1.8065,-1.8068,-1.8073,-1.8082,-1.8087,-1.8095,-1.8099,-1.8108,-1.8113,-1.812,-1.8127,-1.8126,-1.8137,-1.8138,-1.8141,-1.8141,-1.8143,-1.8143,-1.8147,-1.8146,-1.8146,-1.8146,-1.8146,0,-1.8032,-1.8038,-1.8048,-1.8053,-1.806,-1.8067,-1.8074,-1.808,-1.8087,-1.8093,-1.8099,-1.8105,-1.8114,-1.8121,-1.8127,-1.8136,-1.8138,-1.8142,-1.8143,-1.8141,-1.8141,-1.8144,-1.8144,-1.8146,-1.8146,-1.8146,-1.8146,0,-1.8032,-1.8039,-1.8047,-1.8058,-1.806,-1.8065,-1.8074,-1.8079,-1.8085,-1.8093,-1.8095,-1.8104,-1.8113,-1.8121,-1.8133,-1.8137,-1.8145,-1.8147,-1.8142,-1.8143,-1.8145,-1.8145,-1.8151,-1.8153,-1.8151,-1.8151,-1.8151,0,-1.8034,-1.8038,-1.8049,-1.8053,-1.8058,-1.8065,-1.807,-1.8077,-1.8083,-1.8093,-1.8097,-1.8106,-1.8113,-1.8127,-1.8135,-1.8144,-1.8146,-1.8148,-1.8148,-1.8145,-1.8146,-1.8146,-1.8147,-1.8148,-1.8148,-1.8148,-1.8148,0,-1.8036,-1.8039,-1.8046,-1.8054,-1.806,-1.8067,-1.8074,-1.8077,-1.8086,-1.8092,-1.81,-1.8106,-1.8118,-1.8127,-1.8137,-1.8142,-1.8147,-1.8148,-1.8149,-1.8147,-1.8144,-1.8146,-1.8142,-1.8148,-1.8148,-1.8148,-1.8148,-1.8148,-1.8037,-1.8042,-1.805,-1.8057,-1.8063,-1.8069,-1.8075,-1.8081,-1.8088,-1.8098,-1.8102,-1.811,-1.8119,-1.8133,-1.8139,-1.8146,-1.8147,-1.8148,-1.8149,-1.8149,-1.8149,-1.8142,-1.8148,-1.8148,-1.8148,-1.8148,-1.8148,0,-1.804,-1.8045,-1.8052,-1.8062,-1.8068,-1.807,-1.8078,-1.8083,-1.8091,-1.8098,-1.8106,-1.8115,-1.8124,-1.8133,-1.8142,-1.8146,-1.8148,-1.8148,-1.8148,-1.815,-1.8147,-1.8146,-1.8146,-1.8146,-1.8146,-1.8146,-1.8146,-1.8146,-1.8042,-1.805,-1.8054,-1.8065,-1.807,-1.8078,-1.8083,-1.8089,-1.8095,-1.8105,-1.8112,-1.8118,-1.8126,-1.8136,-1.8144,-1.8146,-1.8149,-1.8149,-1.8152,-1.815,-1.815,-1.815,-1.8148,-1.815,-1.815,-1.8153,-1.8153,-1.8154]},{"header":{"parameterUnit":"m.s-1","parameterCategory":1,"la1":30.2991,"la2":30.254,"lo1":-89.0895,"lo2":-89.0444,"dy":0.0017,"dx":0.0017,"nx":28,"ny":28,"refTime":"2024-05-07T21:00:00:Z","depth":0,"parameterNumber":3,"parameterNumberName":"V-component_of_WINDS"},"data":[0,0,0,0,0,0,0,0,0,0,0,0,0,0,0,0,0,0,0,0,0,0,0,0,0,0,0,0,0,0,0,0,0,0,0,0,0,0,0,0,0,0,0,0,0,0,0,0,0,0,0,0,0,0,0,0,0,0,6.5192,6.5193,0,6.5305,6.5307,6.5308,6.529,6.5288,6.5286,6.5284,6.5392,6.5397,6.5402,0,0,0,0,0,0,0,0,0,0,0,0,0,6.4952,6.4957,6.5192,6.5193,6.5195,6.5305,6.5307,6.5308,6.529,6.5288,6.5285,6.5283,6.5391,6.5396,6.5402,0,0,0,0,0,0,0,0,0,0,0,0,0,6.506,6.4958,6.5191,6.5199,6.5201,6.5305,6.5307,6.5309,6.5291,6.5288,6.5285,6.5282,6.5389,6.5396,6.5403,6.5504,0,0,6.5424,6.5427,0,0,0,0,0,0,0,0,6.5054,6.5069,6.5197,6.5199,6.5201,6.5281,6.5262,6.5374,6.5291,6.5256,6.5284,6.5281,6.5357,6.5366,6.5394,6.5509,6.5514,6.5425,6.5429,6.5432,6.5434,0,0,0,0,0,0,0,6.5046,6.5064,6.5236,6.5198,6.5201,6.5194,6.5207,6.5283,6.5321,6.5259,6.5258,6.5272,6.5358,6.5387,6.5396,6.5515,6.5425,6.5431,6.5435,6.5438,6.5719,6.5722,0,0,0,0,0,0,6.5038,6.5058,6.5233,6.524,6.5119,6.5201,6.5215,6.5258,6.532,6.5327,6.5275,6.5271,6.5377,6.5388,6.54,6.5523,6.5432,6.5439,6.5443,6.5716,6.572,6.5723,0,0,0,0,0,0,6.5033,6.5054,6.5228,6.5149,6.517,6.5208,6.5257,6.5262,6.5291,6.5332,6.5338,6.5298,6.5375,6.539,6.5479,6.5526,6.5442,6.5448,6.5712,6.5717,6.5721,6.5769,0,0,0,0,0,0,6.5026,6.5052,6.5092,6.515,6.5175,6.5307,6.526,6.5266,6.5304,6.5301,6.5356,6.5362,6.5374,6.5468,6.5486,6.5534,6.5454,6.5708,6.5714,6.572,6.5763,6.5775,6.5785,0,0,0,0,0,6.5017,6.5099,6.5094,6.5116,6.5226,6.531,6.5324,6.5338,6.5308,6.5348,6.5374,6.536,6.5518,6.5478,6.5497,6.5548,6.5705,6.5712,6.5719,6.5758,6.5772,6.5784,0,0,0,0,0,0,6.5043,6.5107,6.5102,6.5206,6.5253,6.5307,6.5358,6.5352,6.5407,6.5401,6.5413,6.5426,6.5516,6.5541,6.5494,6.565,6.5607,6.5619,6.563,6.5644,6.5654,6.5646,6.5459,0,0,0,0,0,6.5062,6.5127,6.5178,6.5264,6.5288,6.5319,6.5356,6.5363,6.5411,6.543,6.5463,6.5509,6.5569,6.5607,6.5665,6.5767,6.5778,6.5812,6.5822,6.5831,6.584,6.5896,6.5912,6.5747,6.5747,6.5747,0,0,6.5099,6.5142,6.5181,6.527,6.5308,6.5373,6.5336,6.5406,6.5454,6.544,6.5527,6.5553,6.5604,6.57,6.5744,6.5723,6.5889,6.584,6.5847,6.5852,6.5905,6.5921,6.5935,6.5752,6.5751,6.575,0,0,6.52,6.524,6.5316,6.5356,6.5414,6.5434,6.5453,6.5508,6.5526,6.5614,6.5605,6.566,6.5763,6.5801,6.5833,6.595,6.5939,6.5968,6.6024,6.6078,6.6091,6.6103,6.6144,6.6159,6.5978,6.5978,6.5978,0,6.5238,6.5339,6.5355,6.5428,6.5467,6.546,6.5537,6.5573,6.5646,6.5672,6.5649,6.5779,6.5813,6.5918,6.5947,6.5973,6.5993,6.5962,6.6088,6.61,6.6111,6.6151,6.6166,6.5981,6.5981,6.598,6.598,0,6.5383,6.5453,6.5507,6.5582,6.5626,6.57,6.5726,6.5769,6.5772,6.5794,6.5883,6.5924,6.599,6.6015,6.6018,6.612,6.6106,6.6086,6.6043,6.613,6.6167,6.6182,6.5986,6.5985,6.5984,6.5983,0,0,6.5503,6.5587,6.5607,6.5641,6.5705,6.5758,6.5831,6.5899,6.5935,6.5986,6.6046,6.6134,6.6116,6.6153,6.616,6.6207,6.6297,6.6181,6.6182,6.6201,6.6413,6.6427,6.6445,6.6291,6.6294,6.6296,6.6408,0,6.5611,6.5743,6.5761,6.5877,6.5941,6.5936,6.6,6.6045,6.6068,6.6123,6.6147,6.621,6.6181,6.6203,6.6251,6.6277,6.634,6.6269,6.6345,6.6348,6.6333,6.6464,6.648,6.6584,6.6423,6.6425,6.6427,0,6.5754,6.5812,6.5936,6.5993,6.602,6.6077,6.6141,6.6195,6.6245,6.6258,6.6301,6.6301,6.6375,6.633,6.6431,6.6382,6.6414,6.6432,6.6436,6.6443,6.6392,6.6475,6.6617,6.6633,6.645,6.6449,6.6447,0,6.5829,6.5938,6.6026,6.6055,6.6124,6.6164,6.6194,6.6242,6.6282,6.6336,6.6361,6.6423,6.6456,6.6502,6.6519,6.6485,6.6618,6.6575,6.663,6.6629,6.6657,6.6655,6.6807,6.6679,6.6679,6.6679,6.6678,0,6.5947,6.6023,6.6061,6.6115,6.62,6.6218,6.63,6.6328,6.6371,6.6429,6.6427,6.6481,6.65,6.6556,6.657,6.6651,6.6665,6.6677,6.6679,6.6677,6.6675,6.6697,6.669,6.6683,6.6682,6.6681,6.668,0,6.6045,6.6074,6.617,6.6228,6.6244,6.6304,6.6352,6.6403,6.6426,6.6499,6.6517,6.6552,6.6618,6.664,6.6719,6.6728,6.6822,6.6818,6.6806,6.6806,6.686,6.6854,6.7031,6.7054,6.6911,6.6912,6.6914,0,6.6119,6.6178,6.6243,6.6283,6.6315,6.638,6.6421,6.6441,6.6483,6.6546,6.659,6.6656,6.6711,6.6816,6.6847,6.6907,6.6905,6.6962,6.6913,6.6909,6.6905,6.6901,6.6907,6.6971,6.6973,6.6974,6.6975,0,6.6246,6.6258,6.6319,6.6386,6.6436,6.6488,6.6539,6.6571,6.6598,6.6645,6.6715,6.6757,6.684,6.6905,6.6968,6.6995,6.6989,6.699,6.7006,6.7004,6.6994,6.7,6.6831,6.6986,6.6985,6.6984,6.6983,6.6983,6.6334,6.6386,6.6441,6.6509,6.655,6.6597,6.6649,6.6679,6.6738,6.6809,6.6817,6.6891,6.694,6.7023,6.7054,6.7111,6.7095,6.7118,6.7123,6.7129,6.7133,6.6986,6.7123,6.7122,6.7122,6.7122,6.7122,0,6.6461,6.6497,6.656,6.6632,6.6685,6.6678,6.6734,6.6778,6.6845,6.6892,6.6947,6.7026,6.709,6.7126,6.719,6.7228,6.7227,6.7244,6.7241,6.7247,6.7144,6.7124,6.7244,6.7244,6.7244,6.7244,6.7244,6.7244,6.6534,6.6622,6.6641,6.6748,6.6782,6.6858,6.689,6.6934,6.6972,6.7062,6.7116,6.714,6.7183,6.7249,6.7307,6.7316,6.7339,6.7358,6.7364,6.7267,6.7255,6.7243,6.7224,6.7363,6.7363,6.7463,6.7464,6.7465]}]]